Regional Weather Roundup
Issued by NWS Bismarck, ND

Home | Current Version | Previous Version | Text Only | Print | Product List | Glossary On
Versions: 1 2 3 4 5 6 7 8 9 10 11 12 13 14 15 16 17 18 19 20 21 22 23 24 25 26 27 28 29 30 31 32 33 34 35 36 37 38 39 40 41 42 43 44 45 46 47 48 49 50
000
ASUS43 KBIS 270520
RWRBIS

NWR BROADCAST TEXT
NATIONAL WEATHER SERVICE BISMARCK ND
1200 AM CDT FRI MAR 27 2015

NOTE: "FAIR" INDICATES FEW OR NO CLOUDS BELOW 12,000 FEET WITH NO
SIGNIFICANT WEATHER AND/OR OBSTRUCTIONS TO VISIBILITY.


CITY           SKY/WX    TMP DP  RH WIND       PRES   REMARKS
WILLISTON      CLOUDY    38  28  67 S8        30.12F
MINOT          CLEAR     26  18  71 SE9       30.20F WCI  17
MINOT AFB      CLEAR     26  23  89 SE13      30.19F WCI  15
BISMARCK       PTCLDY    23  15  71 E3        30.24F
DICKINSON      CLOUDY    32  27  81 S13       30.13F
GARRISON         N/A     26  19  74 SE8       30.19F WCI  18
HETTINGER ARPT CLOUDY    31  26  82 SE8       30.18S
JAMESTOWN      CLEAR     18  13  80 E6        30.26F WCI  10
BEACH          CLOUDY    36  32  87 SE15      30.11F
CARRINGTON     FAIR      19  18  93 S6        30.27S WCI  11
CROSBY         FAIR      34  27  75 S14       30.12F
HARVEY         FAIR      23  18  80 SE8       30.24F WCI  14
HAZEN          CLOUDY    30  19  64 SE10      30.20F
LINTON         FAIR      23  18  80 SE8       30.24F WCI  14
MANDAN         CLOUDY    27  16  63 E7        30.23F WCI  19
OAKES            N/A     19  16  86 CALM      30.29S
RUGBY          FAIR      25  21  86 SE8       30.24S WCI  16
TIOGA          CLOUDY    32  27  80 S13       30.16F
WATFORD CITY   FAIR      36  27  69 SE13      30.11F
$$

CITY           SKY/WX    TMP DP  RH WIND       PRES   REMARKS
GRAND FORKS    FAIR      16  12  84 CALM      30.30F
GRAND FORKS AF FAIR      17  13  84 N2        30.30S
DEVILS LAKE    CLEAR     21  16  79 SE8       30.26S WCI  12
FARGO          CLEAR     17  10  74 NW7       30.31R WCI   8
CANDO          FAIR      23  19  86 SE9       30.26S WCI  13
CAVALIER       FAIR      23  14  68 CALM      30.31S
GWINNER        CLEAR     23  14  68 N5          N/A  WCI  17
ROLLA          FAIR      23  21  93 S7        30.24S WCI  15
WALHALLA         N/A     18  18 100 SE3       30.30F
$$

CITY           SKY/WX    TMP DP  RH WIND       PRES   REMARKS
ABERDEEN       CLEAR     20  13  74 NE3       30.30R
MOBRIDGE       PTCLDY    26  14  60 E10       30.22S WCI  16
BUFFALO          N/A     34  32  92 S12       30.08F
RAPID CITY     CLOUDY    33  27  78 SE8       30.17S
GLASGOW        CLOUDY    42  32  67 E14       30.03F
SIDNEY         CLOUDY    37  30  75 SE9       30.10F
WOLF POINT     CLOUDY    40  34  79 E8        30.06F
GLENDIVE         N/A     39  32  75 S9        30.09F
MILES CITY     CLOUDY    47  30  51 SE10      30.06S
BAKER          CLOUDY    38  32  79 S15       30.11F
$$

CITY           SKY/WX    TMP DP  RH WIND       PRES   REMARKS
BILLINGS       CLOUDY    56  35  45 W17       30.11R
GREAT FALLS    MOCLDY    51  36  56 SW15      30.12S
REGINA         FLURRIES  32  30  93 SE14      30.08F
ESTEVAN        MOCLDY    32  25  74 SE14G20   30.13F
$$



USA.gov is the U.S. government's official web portal to all federal, state and local government web resources and services.